| time (UTC) | temp F | wind direction | speed MPH | gust MPH | rain 1hr in | rain 24hr in | rain mn in | humidity % | barometer mb |
| 20260510071015 | 48 | 111 | 3.0 | 8.0 | 0.00 | 0.05 | 0.00 | 58 | 1007.5 |
| 20260510070515 | 49 | 83 | 3.0 | 8.0 | 0.00 | 0.05 | 0.00 | 57 | 1007.4 |
| 20260510070015 | 49 | 168 | 1.0 | 6.0 | 0.00 | 0.05 | 0.00 | 59 | 1007.4 |
| 20260510065515 | 49 | 96 | 1.0 | 4.0 | 0.00 | 0.05 | 0.00 | 60 | 1007.3 |
| 20260510065015 | 48 | 115 | 2.0 | 3.0 | 0.00 | 0.05 | 0.00 | 62 | 1007.3 |
| 20260510064516 | 49 | 16 | 1.0 | 3.0 | 0.00 | 0.05 | 0.00 | 62 | 1007.3 |
| 20260510064245 | 49 | 78 | 2.0 | 4.0 | 0.00 | 0.05 | 0.00 | 62 | 1007.4 |
| 20260510063515 | 49 | 95 | 1.0 | 4.0 | 0.00 | 0.05 | 0.00 | 62 | 1007.2 |
| 20260510063016 | 49 | 20 | 1.0 | 4.0 | 0.00 | 0.05 | 0.00 | 62 | 1007.1 |
| 20260510062515 | 49 | 84 | 0.0 | 3.0 | 0.00 | 0.05 | 0.00 | 63 | 1007.2 |
| 20260510062015 | 49 | 117 | 3.0 | 6.0 | 0.00 | 0.05 | 0.00 | 63 | 1007.0 |
| 20260510061959 | 49 | 83 | 4.0 | 6.0 | 0.00 | 0.05 | 0.00 | 64 | 1006.9 |
| 20260510061234 | 49 | 65 | 1.0 | 3.0 | 0.00 | 0.05 | 0.00 | 65 | 1007.0 |
| 20260510060515 | 49 | 64 | 0.0 | 3.0 | 0.00 | 0.05 | 0.00 | 66 | 1006.9 |
| 20260510060016 | 49 | 111 | 0.0 | 3.0 | 0.00 | 0.05 | 0.00 | 65 | 1006.5 |
| 20260510055736 | 49 | 121 | 1.0 | 4.0 | 0.00 | 0.05 | 0.00 | 65 | 1006.7 |
| 20260510055240 | 49 | 104 | 3.0 | 4.0 | 0.00 | 0.05 | 0.00 | 65 | 1006.7 |
| 20260510054515 | 49 | 145 | 1.0 | 4.0 | 0.00 | 0.05 | 0.00 | 64 | 1006.5 |
| 20260510054016 | 49 | 115 | 1.0 | 4.0 | 0.00 | 0.05 | 0.00 | 64 | 1006.4 |
| 20260510053516 | 49 | 102 | 1.0 | 4.0 | 0.00 | 0.05 | 0.00 | 64 | 1006.5 |
| 20260510053015 | 49 | 106 | 1.0 | 6.0 | 0.00 | 0.05 | 0.00 | 64 | 1006.5 |
| 20260510052516 | 49 | 85 | 1.0 | 9.0 | 0.00 | 0.05 | 0.00 | 63 | 1006.6 |
| 20260510052454 | 49 | 121 | 1.0 | 9.0 | 0.00 | 0.05 | 0.00 | 64 | 1006.5 |
| 20260510051516 | 49 | 115 | 2.0 | 6.0 | 0.00 | 0.05 | 0.00 | 64 | 1006.5 |
| 20260510051238 | 49 | 133 | 2.0 | 6.0 | 0.00 | 0.05 | 0.00 | 65 | 1006.3 |
| 20260510050516 | 49 | 139 | 1.0 | 7.0 | 0.00 | 0.05 | 0.00 | 66 | 1006.2 |
| 20260510050016 | 50 | 113 | 1.0 | 7.0 | 0.00 | 0.05 | 0.00 | 66 | 1006.3 |
| 20260510045516 | 50 | 95 | 2.0 | 6.0 | 0.00 | 0.05 | 0.00 | 66 | 1005.9 |
| 20260510045238 | 50 | 47 | 2.0 | 6.0 | 0.00 | 0.05 | 0.00 | 67 | 1006.1 |
| 20260510044733 | 50 | 141 | 1.0 | 8.0 | 0.00 | 0.05 | 0.00 | 68 | 1005.9 |
| 20260510044016 | 50 | 134 | 3.0 | 8.0 | 0.00 | 0.05 | 0.00 | 69 | 1005.9 |
| 20260510043516 | 50 | 86 | 4.0 | 8.0 | 0.00 | 0.05 | 0.00 | 70 | 1005.9 |
| 20260510043015 | 50 | 153 | 3.0 | 8.0 | 0.00 | 0.05 | 0.00 | 71 | 1005.5 |
| 20260510042515 | 50 | 116 | 4.0 | 6.0 | 0.00 | 0.05 | 0.00 | 71 | 1005.6 |
| 20260510042016 | 50 | 134 | 1.0 | 7.0 | 0.00 | 0.05 | 0.00 | 72 | 1005.7 |
| 20260510041516 | 50 | 129 | 2.0 | 7.0 | 0.00 | 0.05 | 0.00 | 73 | 1005.3 |
| 20260510041016 | 50 | 115 | 1.0 | 4.0 | 0.00 | 0.05 | 0.00 | 73 | 1005.4 |
| 20260510040516 | 50 | 110 | 2.0 | 6.0 | 0.00 | 0.05 | 0.00 | 73 | 1005.3 |
| 20260510040016 | 50 | 143 | 1.0 | 7.0 | 0.00 | 0.05 | 0.00 | 74 | 1005.3 |
| 20260510035733 | 50 | 154 | 2.0 | 7.0 | 0.00 | 0.05 | 0.05 | 74 | 1005.3 |
| 20260510035015 | 50 | 130 | 5.0 | 6.0 | 0.00 | 0.05 | 0.05 | 74 | 1005.3 |
| 20260510034742 | 51 | 125 | 3.0 | 6.0 | 0.00 | 0.05 | 0.05 | 74 | 1005.2 |
| 20260510034014 | 51 | 125 | 1.0 | 4.0 | 0.00 | 0.05 | 0.05 | 73 | 1005.0 |
| 20260510033514 | 51 | 158 | 2.0 | 7.0 | 0.00 | 0.05 | 0.05 | 73 | 1004.9 |
| 20260510033014 | 51 | 146 | 3.0 | 7.0 | 0.00 | 0.05 | 0.05 | 72 | 1004.6 |
| 20260510032514 | 52 | 161 | 2.0 | 7.0 | 0.00 | 0.05 | 0.05 | 71 | 1004.9 |
| 20260510032013 | 52 | 167 | 3.0 | 7.0 | 0.00 | 0.05 | 0.05 | 71 | 1005.0 |
| 20260510031514 | 52 | 113 | 2.0 | 8.0 | 0.00 | 0.05 | 0.05 | 71 | 1005.1 |
| 20260510031014 | 52 | 120 | 4.0 | 8.0 | 0.00 | 0.05 | 0.05 | 70 | 1005.3 |
| 20260510030952 | 53 | 94 | 3.0 | 8.0 | 0.00 | 0.05 | 0.05 | 69 | 1004.9 |
| 20260510030232 | 53 | 105 | 3.0 | 9.0 | 0.00 | 0.05 | 0.05 | 68 | 1005.1 |
| 20260510025731 | 53 | 134 | 6.0 | 11.0 | 0.00 | 0.05 | 0.05 | 67 | 1005.0 |
| 20260510025014 | 53 | 144 | 6.0 | 13.0 | 0.00 | 0.05 | 0.05 | 68 | 1005.2 |
| 20260510024502 | 53 | 107 | 4.0 | 13.0 | 0.00 | 0.05 | 0.05 | 67 | 1004.7 |
| 20260510024002 | 53 | 128 | 6.0 | 13.0 | 0.00 | 0.05 | 0.05 | 69 | 1004.8 |
| 20260510023501 | 50 | 63 | 6.0 | 10.0 | 0.00 | 0.05 | 0.05 | 88 | 1004.9 |
| 20260510023001 | 50 | 105 | 0.0 | 6.0 | 0.00 | 0.05 | 0.05 | 92 | 1004.7 |
| 20260510022502 | 50 | 168 | 2.0 | 6.0 | 0.00 | 0.05 | 0.05 | 91 | 1005.0 |
| 20260510022002 | 50 | 352 | 0.0 | 1.0 | 0.00 | 0.05 | 0.05 | 91 | 1004.5 |
| 20260510021502 | 50 | 352 | 0.0 | 1.0 | 0.00 | 0.05 | 0.05 | 91 | 1004.3 |
| 20260510021212 | 50 | 50 | 0.0 | 0.0 | 0.00 | 0.05 | 0.05 | 91 | 1003.9 |
| 20260510020450 | 50 | 146 | 0.0 | 0.0 | 0.00 | 0.05 | 0.05 | 91 | 1003.9 |
| 20260510020212 | 50 | 135 | 0.0 | 0.0 | 0.00 | 0.05 | 0.05 | 91 | 1004.1 |
| 20260510015438 | 49 | 135 | 0.0 | 1.0 | 0.00 | 0.05 | 0.05 | 90 | 1003.8 |
| 20260510014938 | 49 | 176 | 0.0 | 1.0 | 0.00 | 0.05 | 0.05 | 90 | 1003.6 |
| 20260510014437 | 49 | 80 | 0.0 | 0.0 | 0.00 | 0.05 | 0.05 | 90 | 1003.6 |
| 20260510013937 | 49 | 80 | 0.0 | 0.0 | 0.00 | 0.05 | 0.05 | 89 | 1003.3 |
| 20260510013438 | 49 | 80 | 0.0 | 0.0 | 0.00 | 0.05 | 0.05 | 89 | 1003.3 |
| 20260510012938 | 49 | 80 | 0.0 | 0.0 | 0.00 | 0.05 | 0.05 | 89 | 1003.3 |
| 20260510012438 | 49 | 80 | 0.0 | 0.0 | 0.00 | 0.05 | 0.05 | 89 | 1003.5 |
| 20260510011938 | 49 | 80 | 0.0 | 0.0 | 0.00 | 0.05 | 0.05 | 88 | 1003.0 |
| 20260510011438 | 50 | 13 | 0.0 | 2.0 | 0.01 | 0.05 | 0.05 | 88 | 1003.3 |
| 20260510010938 | 50 | 50 | 1.0 | 2.0 | 0.01 | 0.05 | 0.05 | 88 | 1003.0 |
| 20260510010438 | 50 | 340 | 0.0 | 4.0 | 0.01 | 0.05 | 0.05 | 88 | 1003.2 |
| 20260510005938 | 50 | 334 | 1.0 | 4.0 | 0.01 | 0.05 | 0.05 | 87 | 1002.9 |
| 20260510005701 | 51 | 330 | 2.0 | 3.0 | 0.01 | 0.05 | 0.05 | 87 | 1002.8 |
| 20260510004938 | 51 | 333 | 1.0 | 4.0 | 0.01 | 0.05 | 0.05 | 86 | 1002.6 |
| 20260510004438 | 51 | 31 | 1.0 | 4.0 | 0.01 | 0.05 | 0.05 | 86 | 1002.8 |
| 20260510003938 | 51 | 57 | 3.0 | 3.0 | 0.01 | 0.05 | 0.05 | 86 | 1002.9 |
| 20260510003438 | 52 | 11 | 1.0 | 2.0 | 0.01 | 0.05 | 0.05 | 86 | 1002.5 |
| 20260510003205 | 52 | 4 | 0.0 | 1.0 | 0.01 | 0.05 | 0.05 | 85 | 1002.3 |
| 20260510002438 | 52 | 17 | 0.0 | 4.0 | 0.01 | 0.05 | 0.05 | 84 | 1002.4 |
| 20260510001938 | 52 | 3 | 0.0 | 4.0 | 0.01 | 0.05 | 0.05 | 83 | 1002.6 |
| 20260510001437 | 53 | 328 | 1.0 | 4.0 | 0.00 | 0.04 | 0.04 | 83 | 1002.4 |
| 20260510000937 | 53 | 41 | 1.0 | 3.0 | 0.00 | 0.04 | 0.04 | 83 | 1002.4 |
| 20260510000440 | 53 | 4 | 2.0 | 4.0 | 0.00 | 0.04 | 0.04 | 84 | 1002.2 |
| 20260509235938 | 53 | 11 | 1.0 | 6.0 | 0.00 | 0.04 | 0.04 | 83 | 1001.9 |
| 20260509235438 | 53 | 75 | 1.0 | 6.0 | 0.00 | 0.04 | 0.04 | 83 | 1001.9 |
| 20260509234938 | 53 | 50 | 1.0 | 6.0 | 0.00 | 0.04 | 0.04 | 83 | 1001.9 |
| 20260509234438 | 53 | 93 | 2.0 | 7.0 | 0.00 | 0.04 | 0.04 | 82 | 1001.7 |
| 20260509234157 | 53 | 97 | 1.0 | 9.0 | 0.00 | 0.04 | 0.04 | 83 | 1001.6 |
| 20260509233438 | 53 | 308 | 1.0 | 9.0 | 0.00 | 0.04 | 0.04 | 84 | 1001.5 |
| 20260509232938 | 53 | 32 | 2.0 | 4.0 | 0.00 | 0.04 | 0.04 | 84 | 1001.5 |
| 20260509232438 | 53 | 306 | 2.0 | 6.0 | 0.00 | 0.04 | 0.04 | 84 | 1001.2 |
| 20260509232204 | 53 | 16 | 0.0 | 7.0 | 0.01 | 0.04 | 0.04 | 86 | 1001.2 |
| 20260509231438 | 53 | 305 | 0.0 | 7.0 | 0.02 | 0.04 | 0.04 | 85 | 1001.3 |
| 20260509230938 | 52 | 45 | 4.0 | 6.0 | 0.03 | 0.04 | 0.04 | 86 | 1001.3 |
| 20260509230438 | 51 | 55 | 2.0 | 6.0 | 0.04 | 0.04 | 0.04 | 88 | 1001.3 |
| 20260509230158 | 51 | 39 | 1.0 | 4.0 | 0.04 | 0.04 | 0.04 | 89 | 1001.3 |
| 20260509225437 | 50 | 307 | 3.0 | 6.0 | 0.04 | 0.04 | 0.04 | 89 | 1001.6 |
| 20260509224937 | 50 | 307 | 2.0 | 7.0 | 0.04 | 0.04 | 0.04 | 88 | 1001.6 |
| 20260509224659 | 51 | 323 | 2.0 | 7.0 | 0.04 | 0.04 | 0.04 | 88 | 1001.8 |
| 20260509224200 | 51 | 304 | 2.0 | 4.0 | 0.04 | 0.04 | 0.04 | 89 | 1001.9 |
| 20260509223438 | 51 | 67 | 3.0 | 8.0 | 0.04 | 0.04 | 0.04 | 88 | 1002.1 |
| 20260509222938 | 51 | 351 | 1.0 | 8.0 | 0.04 | 0.04 | 0.04 | 88 | 1001.8 |
| 20260509222438 | 51 | 314 | 2.0 | 8.0 | 0.04 | 0.04 | 0.04 | 87 | 1001.7 |
| 20260509222157 | 51 | 342 | 2.0 | 6.0 | 0.03 | 0.03 | 0.03 | 87 | 1001.8 |
| 20260509221656 | 51 | 322 | 3.0 | 4.0 | 0.01 | 0.01 | 0.02 | 85 | 1002.0 |
| 20260509221201 | 51 | 30 | 2.0 | 7.0 | 0.01 | 0.01 | 0.01 | 83 | 1001.8 |
| 20260509220438 | 51 | 290 | 3.0 | 7.0 | 0.00 | 0.00 | 0.00 | 82 | 1001.7 |
| 20260509215938 | 51 | 265 | 1.0 | 7.0 | 0.00 | 0.00 | 0.00 | 81 | 1001.5 |
| 20260509215438 | 51 | 324 | 2.0 | 8.0 | 0.00 | 0.00 | 0.00 | 79 | 1002.0 |
| 20260509214938 | 51 | 314 | 3.0 | 8.0 | 0.00 | 0.00 | 0.00 | 78 | 1001.9 |
| 20260509214438 | 51 | 355 | 4.0 | 8.0 | 0.00 | 0.00 | 0.00 | 77 | 1001.9 |
| 20260509213937 | 52 | 327 | 4.0 | 11.0 | 0.00 | 0.00 | 0.00 | 77 | 1002.0 |
| 20260509213437 | 52 | 316 | 2.0 | 11.0 | 0.00 | 0.00 | 0.00 | 77 | 1002.0 |
| 20260509213428 | 52 | 267 | 4.0 | 8.0 | 0.00 | 0.00 | 0.00 | 77 | 1002.1 |
| 20260509212437 | 52 | 293 | 6.0 | 10.0 | 0.00 | 0.00 | 0.00 | 77 | 1002.3 |
| 20260509211937 | 52 | 358 | 4.0 | 10.0 | 0.00 | 0.00 | 0.00 | 77 | 1002.1 |
| 20260509211438 | 53 | 321 | 7.0 | 13.0 | 0.00 | 0.00 | 0.00 | 77 | 1001.9 |
| 20260509210938 | 53 | 329 | 8.0 | 15.0 | 0.00 | 0.00 | 0.00 | 76 | 1001.8 |
| 20260509210438 | 53 | 283 | 8.0 | 15.0 | 0.00 | 0.00 | 0.00 | 76 | 1001.5 |
| 20260509205938 | 53 | 275 | 5.0 | 14.0 | 0.00 | 0.00 | 0.00 | 77 | 1001.3 |
| 20260509205438 | 53 | 293 | 4.0 | 14.0 | 0.00 | 0.00 | 0.00 | 77 | 1001.6 |
| 20260509204938 | 53 | 304 | 4.0 | 13.0 | 0.00 | 0.00 | 0.00 | 77 | 1001.6 |
| 20260509204925 | 53 | 282 | 6.0 | 13.0 | 0.00 | 0.00 | 0.00 | 77 | 1001.7 |
| 20260509203937 | 53 | 311 | 8.0 | 11.0 | 0.00 | 0.00 | 0.00 | 77 | 1002.0 |
| 20260509203437 | 54 | 321 | 6.0 | 14.0 | 0.00 | 0.00 | 0.00 | 76 | 1002.1 |
| 20260509202937 | 54 | 312 | 6.0 | 14.0 | 0.00 | 0.00 | 0.00 | 76 | 1002.4 |
| 20260509202438 | 54 | 326 | 4.0 | 10.0 | 0.00 | 0.00 | 0.00 | 75 | 1002.4 |
| 20260509202204 | 54 | 288 | 6.0 | 11.0 | 0.00 | 0.00 | 0.00 | 75 | 1002.1 |
| 20260509201437 | 55 | 296 | 4.0 | 11.0 | 0.00 | 0.00 | 0.00 | 75 | 1002.0 |
| 20260509201200 | 55 | 317 | 4.0 | 11.0 | 0.00 | 0.00 | 0.00 | 75 | 1002.0 |
| 20260509200658 | 55 | 306 | 8.0 | 14.0 | 0.00 | 0.00 | 0.00 | 75 | 1002.3 |
| 20260509195938 | 55 | 25 | 7.0 | 14.0 | 0.00 | 0.00 | 0.00 | 74 | 1002.2 |
| 20260509195438 | 55 | 259 | 9.0 | 14.0 | 0.00 | 0.00 | 0.00 | 73 | 1002.4 |
| 20260509194937 | 55 | 316 | 8.0 | 14.0 | 0.00 | 0.00 | 0.00 | 73 | 1002.5 |
| 20260509194438 | 56 | 284 | 5.0 | 13.0 | 0.00 | 0.00 | 0.00 | 73 | 1002.5 |
| 20260509193937 | 56 | 301 | 7.0 | 13.0 | 0.00 | 0.00 | 0.00 | 73 | 1002.6 |
| 20260509193437 | 56 | 261 | 7.0 | 13.0 | 0.00 | 0.00 | 0.00 | 72 | 1002.3 |
| 20260509193201 | 56 | 310 | 3.0 | 14.0 | 0.00 | 0.00 | 0.00 | 74 | 1002.8 |
| 20260509192438 | 56 | 352 | 7.0 | 14.0 | 0.00 | 0.00 | 0.00 | 73 | 1002.9 |
| 20260509191938 | 56 | 320 | 8.0 | 16.0 | 0.00 | 0.00 | 0.00 | 74 | 1002.7 |
| 20260509191438 | 57 | 301 | 5.0 | 16.0 | 0.00 | 0.00 | 0.00 | 73 | 1002.6 |
| 20260509190938 | 58 | 311 | 8.0 | 14.0 | 0.00 | 0.00 | 0.00 | 70 | 1002.7 |
| 20260509190437 | 58 | 285 | 5.0 | 13.0 | 0.00 | 0.00 | 0.00 | 71 | 1002.6 |
| 20260509185938 | 58 | 317 | 8.0 | 11.0 | 0.00 | 0.00 | 0.00 | 71 | 1002.8 |
| 20260509185439 | 57 | 321 | 6.0 | 11.0 | 0.00 | 0.00 | 0.00 | 72 | 1002.7 |
| 20260509184938 | 58 | 21 | 6.0 | 11.0 | 0.00 | 0.00 | 0.00 | 70 | 1002.9 |
| 20260509184438 | 58 | 318 | 8.0 | 13.0 | 0.00 | 0.00 | 0.00 | 71 | 1003.1 |
| 20260509183938 | 58 | 323 | 9.0 | 13.0 | 0.00 | 0.00 | 0.00 | 71 | 1002.9 |
| 20260509183438 | 59 | 16 | 3.0 | 11.0 | 0.00 | 0.00 | 0.00 | 70 | 1002.8 |
| 20260509182938 | 59 | 285 | 9.0 | 11.0 | 0.00 | 0.00 | 0.00 | 69 | 1002.7 |
| 20260509182438 | 59 | 321 | 4.0 | 11.0 | 0.00 | 0.00 | 0.00 | 71 | 1003.2 |
| 20260509181937 | 59 | 312 | 7.0 | 13.0 | 0.00 | 0.00 | 0.00 | 69 | 1003.1 |
| 20260509181655 | 60 | 327 | 3.0 | 13.0 | 0.00 | 0.00 | 0.00 | 70 | 1003.2 |
| 20260509180938 | 59 | 351 | 2.0 | 13.0 | 0.00 | 0.00 | 0.00 | 73 | 1003.3 |
| 20260509180438 | 59 | 304 | 6.0 | 14.0 | 0.00 | 0.00 | 0.00 | 73 | 1003.4 |
| 20260509175938 | 59 | 19 | 5.0 | 14.0 | 0.00 | 0.00 | 0.00 | 72 | 1003.3 |
| 20260509175654 | 59 | 318 | 6.0 | 11.0 | 0.00 | 0.00 | 0.00 | 72 | 1003.3 |
| 20260509174938 | 58 | 26 | 4.0 | 11.0 | 0.00 | 0.00 | 0.00 | 73 | 1003.5 |
| 20260509174438 | 58 | 329 | 6.0 | 11.0 | 0.00 | 0.00 | 0.00 | 73 | 1003.3 |
| 20260509173938 | 58 | 305 | 8.0 | 9.0 | 0.00 | 0.00 | 0.00 | 72 | 1003.7 |
| 20260509173438 | 58 | 312 | 3.0 | 10.0 | 0.00 | 0.00 | 0.00 | 72 | 1003.8 |
| 20260509173159 | 58 | 358 | 6.0 | 10.0 | 0.00 | 0.00 | 0.00 | 73 | 1003.8 |
| 20260509172438 | 57 | 308 | 5.0 | 11.0 | 0.00 | 0.00 | 0.00 | 75 | 1004.2 |
| 20260509171938 | 57 | 29 | 6.0 | 11.0 | 0.00 | 0.00 | 0.00 | 73 | 1004.0 |
| 20260509171438 | 57 | 333 | 4.0 | 9.0 | 0.00 | 0.00 | 0.00 | 74 | 1003.8 |
| 20260509170938 | 58 | 30 | 3.0 | 9.0 | 0.00 | 0.00 | 0.00 | 72 | 1003.9 |
| 20260509170438 | 58 | 355 | 6.0 | 9.0 | 0.00 | 0.00 | 0.00 | 73 | 1004.0 |
| 20260509165938 | 58 | 319 | 8.0 | 9.0 | 0.00 | 0.00 | 0.00 | 72 | 1004.3 |
| 20260509165438 | 58 | 349 | 4.0 | 9.0 | 0.00 | 0.00 | 0.00 | 72 | 1003.9 |
| 20260509164938 | 57 | 304 | 7.0 | 9.0 | 0.00 | 0.00 | 0.00 | 73 | 1004.4 |
| 20260509164437 | 57 | 292 | 6.0 | 9.0 | 0.00 | 0.00 | 0.00 | 75 | 1004.1 |
| 20260509163938 | 57 | 347 | 1.0 | 10.0 | 0.00 | 0.00 | 0.00 | 74 | 1004.5 |
| 20260509163438 | 57 | 293 | 3.0 | 10.0 | 0.00 | 0.00 | 0.00 | 75 | 1004.3 |
| 20260509162938 | 57 | 328 | 8.0 | 10.0 | 0.00 | 0.00 | 0.00 | 75 | 1004.8 |
| 20260509162437 | 57 | 313 | 5.0 | 8.0 | 0.00 | 0.00 | 0.00 | 74 | 1004.5 |
| 20260509162158 | 55 | 337 | 3.0 | 10.0 | 0.00 | 0.00 | 0.00 | 76 | 1004.7 |
| 20260509161700 | 55 | 308 | 3.0 | 10.0 | 0.00 | 0.00 | 0.00 | 75 | 1004.5 |
| 20260509160938 | 54 | 332 | 6.0 | 9.0 | 0.00 | 0.00 | 0.00 | 77 | 1004.7 |
| 20260509160659 | 54 | 336 | 2.0 | 9.0 | 0.00 | 0.00 | 0.00 | 76 | 1004.6 |
| 20260509155937 | 54 | 334 | 3.0 | 8.0 | 0.00 | 0.00 | 0.00 | 75 | 1004.8 |
| 20260509155438 | 54 | 1 | 3.0 | 8.0 | 0.00 | 0.00 | 0.00 | 76 | 1005.1 |
| 20260509154938 | 54 | 352 | 4.0 | 9.0 | 0.00 | 0.00 | 0.00 | 75 | 1005.1 |
| 20260509154438 | 54 | 316 | 4.0 | 9.0 | 0.00 | 0.00 | 0.00 | 75 | 1005.0 |
| 20260509154200 | 55 | 302 | 5.0 | 9.0 | 0.00 | 0.00 | 0.00 | 74 | 1005.0 |
| 20260509153437 | 55 | 336 | 4.0 | 9.0 | 0.00 | 0.00 | 0.00 | 73 | 1005.0 |
| 20260509152937 | 55 | 359 | 6.0 | 9.0 | 0.00 | 0.00 | 0.00 | 74 | 1004.8 |
| 20260509152438 | 54 | 323 | 3.0 | 8.0 | 0.00 | 0.00 | 0.00 | 76 | 1005.0 |
| 20260509151926 | 55 | 254 | 1.0 | 11.0 | 0.00 | 0.00 | 0.00 | 77 | 1004.8 |
| 20260509151426 | 54 | 2 | 4.0 | 11.0 | 0.00 | 0.00 | 0.00 | 76 | 1004.9 |
| 20260509150926 | 54 | 290 | 7.0 | 10.0 | 0.00 | 0.00 | 0.00 | 74 | 1005.2 |
| 20260509150426 | 55 | 311 | 8.0 | 10.0 | 0.00 | 0.00 | 0.00 | 73 | 1005.2 |
| 20260509145926 | 54 | 349 | 6.0 | 11.0 | 0.00 | 0.00 | 0.00 | 75 | 1005.2 |
| 20260509145426 | 54 | 22 | 3.0 | 11.0 | 0.00 | 0.00 | 0.00 | 74 | 1005.4 |
| 20260509144926 | 55 | 28 | 5.0 | 10.0 | 0.00 | 0.00 | 0.00 | 71 | 1005.4 |
| 20260509144426 | 54 | 3 | 4.0 | 10.0 | 0.00 | 0.00 | 0.00 | 73 | 1005.6 |
| 20260509143926 | 54 | 1 | 4.0 | 9.0 | 0.00 | 0.00 | 0.00 | 72 | 1005.6 |
| 20260509143425 | 54 | 325 | 2.0 | 9.0 | 0.00 | 0.00 | 0.00 | 73 | 1005.5 |
| 20260509143147 | 54 | 26 | 2.0 | 8.0 | 0.00 | 0.00 | 0.00 | 72 | 1005.6 |
| 20260509142426 | 53 | 359 | 2.0 | 8.0 | 0.00 | 0.00 | 0.00 | 74 | 1005.7 |
| 20260509141925 | 53 | 323 | 5.0 | 8.0 | 0.00 | 0.00 | 0.00 | 72 | 1005.8 |
| 20260509141426 | 53 | 311 | 6.0 | 8.0 | 0.00 | 0.00 | 0.00 | 72 | 1005.6 |
| 20260509140926 | 53 | 13 | 4.0 | 8.0 | 0.00 | 0.00 | 0.00 | 71 | 1005.6 |
| 20260509140426 | 53 | 58 | 4.0 | 8.0 | 0.00 | 0.00 | 0.00 | 73 | 1005.7 |
| 20260509135926 | 52 | 351 | 3.0 | 7.0 | 0.00 | 0.00 | 0.00 | 72 | 1005.3 |
| 20260509135426 | 52 | 15 | 1.0 | 7.0 | 0.00 | 0.00 | 0.00 | 71 | 1005.6 |
| 20260509134926 | 52 | 304 | 3.0 | 7.0 | 0.00 | 0.00 | 0.00 | 72 | 1005.6 |
| 20260509134425 | 52 | 7 | 3.0 | 7.0 | 0.00 | 0.00 | 0.00 | 70 | 1005.6 |
| 20260509134142 | 52 | 300 | 1.0 | 7.0 | 0.00 | 0.00 | 0.00 | 70 | 1006.0 |
| 20260509133642 | 52 | 2 | 5.0 | 7.0 | 0.00 | 0.00 | 0.00 | 68 | 1006.1 |
| 20260509132926 | 52 | 340 | 5.0 | 8.0 | 0.00 | 0.00 | 0.00 | 70 | 1005.9 |
| 20260509132414 | 52 | 312 | 7.0 | 8.0 | 0.00 | 0.00 | 0.00 | 69 | 1005.9 |
| 20260509131914 | 53 | 290 | 3.0 | 7.0 | 0.00 | 0.00 | 0.00 | 68 | 1006.0 |
| 20260509131413 | 52 | 316 | 6.0 | 7.0 | 0.00 | 0.00 | 0.00 | 68 | 1005.8 |
| 20260509130913 | 52 | 12 | 2.0 | 6.0 | 0.00 | 0.00 | 0.00 | 67 | 1006.1 |
| 20260509130413 | 51 | 280 | 1.0 | 7.0 | 0.00 | 0.00 | 0.00 | 66 | 1006.0 |
| 20260509125914 | 51 | 234 | 1.0 | 7.0 | 0.00 | 0.00 | 0.00 | 65 | 1005.9 |
| 20260509125414 | 51 | 318 | 1.0 | 4.0 | 0.00 | 0.00 | 0.00 | 64 | 1005.9 |
| 20260509125132 | 51 | 339 | 4.0 | 6.0 | 0.00 | 0.00 | 0.00 | 62 | 1005.9 |
| 20260509124413 | 50 | 7 | 2.0 | 6.0 | 0.00 | 0.00 | 0.00 | 65 | 1005.9 |
| 20260509123913 | 50 | 279 | 3.0 | 7.0 | 0.00 | 0.00 | 0.00 | 62 | 1006.1 |
| 20260509123414 | 49 | 288 | 2.0 | 7.0 | 0.00 | 0.00 | 0.00 | 63 | 1005.8 |
| 20260509122914 | 49 | 311 | 2.0 | 6.0 | 0.00 | 0.00 | 0.00 | 63 | 1005.8 |
| 20260509122414 | 49 | 290 | 2.0 | 4.0 | 0.00 | 0.00 | 0.00 | 62 | 1005.9 |
| 20260509121914 | 48 | 304 | 1.0 | 6.0 | 0.00 | 0.00 | 0.00 | 64 | 1005.9 |
| 20260509121414 | 47 | 266 | 4.0 | 6.0 | 0.00 | 0.00 | 0.00 | 63 | 1005.9 |
| 20260509121134 | 47 | 302 | 4.0 | 6.0 | 0.00 | 0.00 | 0.00 | 63 | 1006.1 |
| 20260509120414 | 47 | 302 | 1.0 | 4.0 | 0.00 | 0.00 | 0.00 | 63 | 1005.9 |
| 20260509115914 | 47 | 276 | 1.0 | 4.0 | 0.00 | 0.00 | 0.00 | 62 | 1006.1 |
| 20260509115413 | 47 | 278 | 1.0 | 4.0 | 0.00 | 0.00 | 0.00 | 63 | 1006.1 |
| 20260509114914 | 47 | 285 | 2.0 | 6.0 | 0.00 | 0.00 | 0.00 | 64 | 1006.0 |
| 20260509114414 | 46 | 275 | 2.0 | 6.0 | 0.00 | 0.00 | 0.00 | 63 | 1005.9 |
| 20260509113914 | 46 | 290 | 1.0 | 6.0 | 0.00 | 0.00 | 0.00 | 63 | 1005.8 |
| 20260509113414 | 46 | 261 | 3.0 | 4.0 | 0.00 | 0.00 | 0.00 | 62 | 1005.9 |
| 20260509112914 | 45 | 269 | 2.0 | 4.0 | 0.00 | 0.00 | 0.00 | 64 | 1005.8 |
| 20260509112414 | 45 | 264 | 0.0 | 4.0 | 0.00 | 0.00 | 0.00 | 65 | 1006.1 |
| 20260509112135 | 44 | 294 | 1.0 | 6.0 | 0.00 | 0.00 | 0.00 | 64 | 1006.3 |
| 20260509111413 | 44 | 248 | 3.0 | 6.0 | 0.00 | 0.00 | 0.00 | 65 | 1006.0 |
| 20260509110914 | 42 | 235 | 2.0 | 4.0 | 0.00 | 0.00 | 0.00 | 67 | 1006.3 |
| 20260509110414 | 41 | 214 | 1.0 | 3.0 | 0.00 | 0.00 | 0.00 | 69 | 1005.9 |
| 20260509105914 | 41 | 228 | 1.0 | 2.0 | 0.00 | 0.00 | 0.00 | 70 | 1006.2 |
| 20260509105414 | 41 | 245 | 0.0 | 3.0 | 0.00 | 0.00 | 0.00 | 71 | 1006.4 |
| 20260509104914 | 40 | 225 | 1.0 | 3.0 | 0.00 | 0.00 | 0.00 | 72 | 1006.4 |
| 20260509104414 | 40 | 262 | 0.0 | 2.0 | 0.00 | 0.00 | 0.00 | 72 | 1006.1 |
| 20260509103913 | 40 | 224 | 0.0 | 2.0 | 0.00 | 0.00 | 0.00 | 72 | 1006.4 |
| 20260509103413 | 40 | 219 | 1.0 | 2.0 | 0.00 | 0.00 | 0.00 | 73 | 1006.4 |
| 20260509103134 | 40 | 223 | 0.0 | 1.0 | 0.00 | 0.00 | 0.00 | 73 | 1006.5 |
| 20260509102414 | 39 | 220 | 0.0 | 1.0 | 0.00 | 0.00 | 0.00 | 74 | 1006.1 |
| 20260509102138 | 39 | 207 | 1.0 | 1.0 | 0.00 | 0.00 | 0.00 | 75 | 1006.4 |
| 20260509101413 | 39 | 237 | 0.0 | 1.0 | 0.00 | 0.00 | 0.00 | 76 | 1006.3 |
| 20260509100914 | 39 | 262 | 0.0 | 1.0 | 0.00 | 0.00 | 0.00 | 76 | 1006.4 |
| 20260509100640 | 39 | 257 | 0.0 | 1.0 | 0.00 | 0.00 | 0.00 | 76 | 1006.5 |
| 20260509095914 | 39 | 208 | 0.0 | 1.0 | 0.00 | 0.00 | 0.00 | 76 | 1006.4 |
| 20260509095414 | 39 | 190 | 1.0 | 1.0 | 0.00 | 0.00 | 0.00 | 76 | 1006.6 |
| 20260509094914 | 39 | 192 | 0.0 | 0.0 | 0.00 | 0.00 | 0.00 | 76 | 1006.4 |
| 20260509094635 | 39 | 207 | 0.0 | 0.0 | 0.00 | 0.00 | 0.00 | 76 | 1006.5 |
| 20260509093914 | 39 | 207 | 0.0 | 0.0 | 0.00 | 0.00 | 0.00 | 75 | 1006.3 |
| 20260509093414 | 39 | 252 | 0.0 | 0.0 | 0.00 | 0.00 | 0.00 | 75 | 1006.4 |
| 20260509092914 | 39 | 252 | 0.0 | 0.0 | 0.00 | 0.00 | 0.00 | 76 | 1006.4 |
| 20260509092414 | 38 | 252 | 0.0 | 0.0 | 0.00 | 0.00 | 0.00 | 76 | 1006.6 |
| 20260509091914 | 38 | 252 | 0.0 | 0.0 | 0.00 | 0.00 | 0.00 | 76 | 1006.5 |
| 20260509091414 | 39 | 252 | 0.0 | 0.0 | 0.00 | 0.00 | 0.00 | 75 | 1006.6 |
| 20260509091137 | 39 | 252 | 0.0 | 0.0 | 0.00 | 0.00 | 0.00 | 74 | 1006.4 |
| 20260509090414 | 39 | 252 | 0.0 | 1.0 | 0.00 | 0.00 | 0.00 | 73 | 1006.4 |
| 20260509085914 | 39 | 252 | 0.0 | 2.0 | 0.00 | 0.00 | 0.00 | 73 | 1006.5 |
| 20260509085414 | 39 | 232 | 0.0 | 2.0 | 0.00 | 0.00 | 0.00 | 73 | 1006.4 |
| 20260509084914 | 39 | 228 | 0.0 | 2.0 | 0.00 | 0.00 | 0.00 | 74 | 1006.4 |
| 20260509084414 | 39 | 199 | 0.0 | 2.0 | 0.00 | 0.00 | 0.00 | 74 | 1006.2 |
| 20260509083914 | 39 | 208 | 0.0 | 3.0 | 0.00 | 0.00 | 0.00 | 74 | 1006.4 |
| 20260509083643 | 39 | 222 | 1.0 | 3.0 | 0.00 | 0.00 | 0.00 | 74 | 1006.3 |
| 20260509082914 | 39 | 227 | 0.0 | 3.0 | 0.00 | 0.00 | 0.00 | 74 | 1006.5 |
| 20260509082414 | 39 | 254 | 2.0 | 3.0 | 0.00 | 0.00 | 0.00 | 74 | 1006.6 |
| 20260509081913 | 39 | 228 | 1.0 | 2.0 | 0.00 | 0.00 | 0.00 | 74 | 1006.7 |
| 20260509081414 | 39 | 230 | 0.0 | 1.0 | 0.00 | 0.00 | 0.00 | 74 | 1006.6 |
| 20260509080914 | 39 | 192 | 1.0 | 1.0 | 0.00 | 0.00 | 0.00 | 75 | 1006.7 |
| 20260509080413 | 39 | 223 | 0.0 | 1.0 | 0.00 | 0.00 | 0.00 | 75 | 1006.8 |
| 20260509075913 | 39 | 259 | 0.0 | 1.0 | 0.00 | 0.00 | 0.00 | 74 | 1006.9 |
| 20260509075414 | 39 | 264 | 0.0 | 1.0 | 0.00 | 0.00 | 0.00 | 74 | 1006.9 |
| 20260509074914 | 39 | 262 | 0.0 | 1.0 | 0.00 | 0.00 | 0.00 | 74 | 1006.7 |
| 20260509074415 | 40 | 261 | 0.0 | 3.0 | 0.00 | 0.00 | 0.00 | 73 | 1006.9 |
| 20260509073914 | 40 | 240 | 0.0 | 4.0 | 0.00 | 0.00 | 0.00 | 72 | 1006.9 |
| 20260509073414 | 40 | 235 | 2.0 | 4.0 | 0.00 | 0.00 | 0.00 | 73 | 1006.9 |
| 20260509072914 | 39 | 205 | 1.0 | 2.0 | 0.00 | 0.00 | 0.00 | 74 | 1007.0 |
| 20260509072414 | 39 | 206 | 0.0 | 1.0 | 0.00 | 0.00 | 0.00 | 74 | 1006.9 |
| 20260509071914 | 39 | 206 | 0.0 | 1.0 | 0.00 | 0.00 | 0.00 | 74 | 1006.6 |